XW-3 (CAS-9)

Last updated on Sun Aug 31 2025 00:03:10 GMT+0000 (Coordinated Universal Time)

1 50466U 21131B 25242.28741769 .00000849 00000+0 27839-3 0 9990 2 50466 98.5089 331.2390 0003148 242.6709 117.4159 14.40897703193216
UTC large
Height (km)
Speed (km/s)
/
Latitude / Longitude
Inclination (degrees)
Orbital Period (minutes)
Azimuth
Elevation
Range (km)
Doppler Factor

Next 0 passes for location: London (51.5072 / 0.1276)

Sorry there are no passes over London.